Flight Information

DEPARTURE
CARLSBAD, CA
Elevation:
330
Runways:
6/24 - 4897x150 - ASPH-G
H1 - 40x50 - CONC-G
ATIS:
120.15 760-438-2117
Clearance Delivery:
134.85
Ground:
121.8
Tower:
118.6
DESTINATION
,
Elevation:
TPA:
1000 (est.)


6754 NM74° True-13° Var60° HDG

Flight Plan:
(click to file on line)

1. Type
2. Aircraft Identification
3. Aircraft Type / Special Equipment
4. True Airspeed
kts
5. Departure Airport
(ICAO code)
6. Arriving Airport
(ICAO code)
7. Cruising Altitude
ft
8. Alternate Airport
(ICAO code)
9. Route of Flight
10. Remarks


00:00:00 Departure ATIS: Destination ATIS:

Clearance Limit:
Route:
Altitude: Expect in minutes
Frequency:
Transponder: (7500 Hijack / 7600 Lost Comms / 7700 Emergency)


KCRQ 281253Z AUTO 00000KT 8SM CLR 17/14 A2988 RMK AO2 SLP114 T01720144
Time: 2020-09-28T12:53:00Z
1601299585
Winds: calm
Visibility: 8.0 sm
Clouds (AGL): CLR
Temperature: 17.2 C
Dew Point: 14.4 C
Pressure: 29.878937 in Hgbr


Notes:

Data extracted from FAA Digital Chart Supplement. Effective: 0901Z Thursday, Sep 10, 2020 to 0901Z Thursday, Nov 5, 2020
Current ATIS data is provided courtisy of PilotEdge.